Regional Weather Roundup
Issued by NWS Wakefield, VA

Home | Current Version | Previous Version | Text Only | Print | Product List | Glossary Off
Versions: 1 2 3 4 5 6 7 8 9 10 11 12 13 14 15 16 17 18 19 20 21 22 23 24 25 26

000
ASUS41 KAKQ 230615
RWRAKQ

REGIONAL WEATHER ROUNDUP
NATIONAL WEATHER SERVICE WAKEFIELD VA
100 AM EST THU FEB 23 2017

Note: "fair" indicates few or no clouds below 12,000 feet with no
significant weather and/or obstructions to visibility. * = Denotes
station may not report precipitation (e.g., rain,snow,etc.),
thunder or fog.

VAZ042-051-052>054-056-230700-
NORTHERN VIRGINIA

CITY           SKY/WX    TMP DP  RH WIND       PRES   REMARKS
WASH NATIONAL  CLOUDY    54  53  97 S9        29.90F
DULLES         CLOUDY    55  51  86 S7        29.89S
FORT BELVOIR   CLOUDY    54  50  87 SE3       29.90S
QUANTICO       CLOUDY    51  51 100 SW3       29.91S
FREDERICKSBRG* CLOUDY    57  56  95 SW10G17   29.90S
STAFFORD*      CLOUDY    55  54  99 CALM      29.94S
WARRENTON      CLOUDY    56  51  83 SW5       29.89S
CULPEPER*      CLOUDY    56  54  92 S5        29.91S
MANASSAS*      CLOUDY    54  52  93 CALM      29.90S
LEESBURG*      CLOUDY    54  52  94 MISG      29.90S
WINCHESTER     CLOUDY    55  50  82 SW8       29.88R
FRONT ROYAL*   CLOUDY    57  50  77 SW6       29.87S
LURAY*         CLOUDY    55  52  88 SW6       29.89S
$$

VAZ048-049-060>072-079>083-230700-
CENTRAL AND SOUTH CENTRAL VIRGINIA

CITY           SKY/WX    TMP DP  RH WIND       PRES   REMARKS
RICHMOND       CLOUDY    54  53  97 CALM      29.92F
CHESTERFIELD*  CLOUDY    52  37  58 CALM      29.94S
PETERSBURG*    CLOUDY    52  51  97 CALM      29.93S
HANOVER        CLOUDY    54  50  86 S5        29.94S
TAPPAHANNOCK*  CLOUDY    56  56 100 CALM      29.93S
QUINTON*       MOCLDY    53  53 100 CALM      29.92S
CHARLOTTSVILLE CLOUDY    55  53  93 S7        29.90F
GORDONSVILLE*  CLOUDY    55  54  97 SW7       29.91S
ORANGE*        CLOUDY    54  52  94 S6        29.92S
LOUISA*        CLOUDY    57  57 100 S3        29.91S
BUMPASS*       CLOUDY    54  54 100 CALM      29.92R
FARMVILLE*     MOCLDY    54  54 100 CALM      29.92S FOG
CREWE*         CLOUDY    50  50 100 CALM      29.92S VSB 1/2
FORT PICKETT*  MOCLDY    51  47  88 S10       29.93S VSB 1/4
CHASE CITY*    FAIR      49  48  95 CALM      29.92F
CLARKSVILLE*   FAIR      50  50 100 CALM      29.93S
SOUTH HILL*    CLOUDY    49  49 100 CALM      29.99S VSB 1
LAWRENCEVILLE*   N/A     52  51  97 CALM      29.93S
EMPORIA*       CLOUDY    52  52 100 CALM      29.95S FOG
$$

VAZ088>098-230700-
SOUTHEAST VIRGINIA

CITY           SKY/WX    TMP DP  RH WIND       PRES   REMARKS
NORFOLK        CLOUDY    59  51  75 S7        29.93S
VIRGINIA BEACH CLOUDY    57  49  74 S5        29.93S
NORFOLK NAVAL  CLOUDY    59  51  75 SE5       29.94F
WEST POINT*    CLOUDY    54  53  96 S3        29.93S
SALUDA*        CLOUDY    55  52  90 S3        29.92S
NEWPORT NEWS   CLOUDY    58  52  80 S8        29.93S
LANGLEY AFB    CLOUDY    57  54  88 S7        29.92F
FORT EUSTIS    CLOUDY    54  51  91 S5        29.90F
WILLIAMSBURG*  MOCLDY    55  55 100 CALM      29.93F
HR EXEC AP*    MOCLDY    57  52  82 S6        29.92F
FRANKLIN*      CLOUDY    53  52  96 CALM      29.95R
US460-WAKEFLD  CLOUDY    53  53 100 CALM      29.93S
$$

VAZ020-022-025-037-045-230700-
WEST CENTRAL AND SOUTHWEST VIRGINIA

CITY           SKY/WX    TMP DP  RH WIND       PRES   REMARKS
STAUNTON*      CLOUDY    52  50  90 CALM      29.93S
WAYNESBORO*    CLOUDY    49  48  96 CALM      29.92S
HOT SPRINGS VA CLOUDY    50  50 100 W9        29.95S
LYNCHBURG      CLOUDY   N/A N/A N/A MISG      29.94S
DANVILLE       FOG       51  51 100 CALM      29.93F VSB 1/2
SOUTH BOSTON*  CLOUDY    49  47  95 CALM      29.93S VSB 1/2
MARTINSVILLE   FOG       52  51  97 CALM      29.96S VSB 1/2
ROANOKE        FOG       52  52 100 CALM      29.95S VSB 1/4
BLACKSBURG     FOG       46  46 100 CALM      29.97F VSB 1/4
DUBLIN*        FOG       48  48 100 CALM      29.95F VSB 1/4
MARION*        FOG       49  48  96 CALM      29.96F VSB 1/4
HILLSVILLE*    CLOUDY    51  50  98 CALM      29.94S
RICHLANDS*     FAIR      50  50 100 CALM      29.93S
WISE*          CLEAR     50  50 100 CALM      29.94S FOG
ABINGDON*      FOG       48  48 100 CALM      29.93S VSB 1/2
$$

MDZ021>025-VAZ099-100-230700-
SOUTHERN MARYLAND AND THE DELMARVA PENINSULA

CITY           SKY/WX    TMP DP  RH WIND       PRES   REMARKS
PATUXENT RIVER CLOUDY    53  52  96 S3        29.91F
BAY BRIDGE APT FOG       50  50 100 S5        29.91S VSB 1/2
LEONARDTOWN    CLOUDY    54  52  94 S5        29.92F
DOVER          FOG       50  50 100 S6        29.90F VSB 1/2
GEORGETOWN     FOG       51  50  96 CALM      29.92S VSB 3/4
EASTON         CLOUDY    52  50  93 SW5       29.95S
CAMBRIDGE      CLOUDY    52  52 100 S3        29.92
SALISBURY      CLOUDY    55  54  96 S5        29.92S
OCEAN CITY     CLOUDY    53  49  86 SW7       29.93S
WALLOPS ISLAND CLOUDY    52  52 100 S9        29.94S
ACCOMACK*      CLOUDY    54  51  90 SE6       29.93F
$$

NCZ012>017-030>032-230700-
NORTH CENTRAL AND EASTERN NORTH CAROLINA

CITY           SKY/WX    TMP DP  RH WIND       PRES   REMARKS
ROANOKE RAPIDS MOCLDY    54  52  94 CALM      29.93F
RALEIGH        CLOUDY    55  52  89 CALM      29.93F
ELIZABETH CITY CLOUDY    53  50  89 CALM      29.95S
AHOSKIE*         N/A     53  51  93 CALM      29.95R
EDENTON*       CLOUDY    55  51  88 CALM      29.95S
CURRITUCK*     CLOUDY    56  51  84 CALM      29.95S
KILL DEVIL HLS NOT AVBL
MANTEO         CLOUDY    59  53  80 S5        29.95S
CAPE HATTERAS  LGT RAIN  62  58  86 SW3       29.95F FOG
TARBORO*       NOT AVBL
GOLDSBORO      CLOUDY    56  55  97 CALM      29.91S
WASHINGTON     PTCLDY    54  51  89 CALM      29.94F
GREENVILLE     PTCLDY    59  54  82 CALM      29.96S
NEW BERN       CLOUDY    52  51  97 CALM      29.94F
WILMINGTON     MOCLDY    55  54  96 CALM      29.91F
$$

VAZ048-230700-
ELSEWHERE

CITY           SKY/WX    TMP DP  RH WIND       PRES   REMARKS
HARRISBURG PA  PTCLDY    40  39  97 SE5       29.88S
BALTIMORE      CLOUDY    45  45 100 CALM      29.89F
ANNAPOLIS      FOG       48  48 100 SE5       29.90S VSB 1/4
ANDREWS AFB    CLOUDY    54  52  94 S7        29.89S
PHILADELPHIA   MOCLDY    46  43  89 CALM      29.91S FOG
HENDERSON NC   PTCLDY    50  49  95 CALM      29.93F
GREENSBORO     CLOUDY    54  54 100 N3        29.92F FOG
ROCKY MOUNT    CLOUDY    53  52  96 CALM      29.94S
$$

VAZ100-230700-
MARINE

STATION/POSITION TIME  TEMP    WIND        PRES    WAVE   SWELL
                       AIR SEA DIR/SP/G            HT/PER HT/PER
                 (UTC) (F)     (DEG/KT/KT) (MB)    (FT/S) (FT/S)
CAPE MAY NJ      0548   52 42  170/  4/  4 1012.8S
LEWES DE         0542   53 43  200/  3/  4 1012.9F
OCEAN-CITY-INLET 0542   47 45  200/  7/  9 1013.9S
WACHAPREAGUE VA  0548   52 52  200/  3/  4 1013.7S
THOMAS POINT MD  0600   46 42  200/  8/  8   N/A
GOOSES REEF MD   0600   46 44  170/  8/  8 1013.4
COVE POINT MD    0548   47     190/  8/  8 1013.4F
SOLOMONS ISLAND  0542   50 44   90/  5/  5   N/A
BISHOPS HEAD MD  0548   47 46  160/  4/  6 1013.4F
PINEY POINT MD   0542          170/  3/  4   N/A
POTOMAC MD       0600   49 46   CALM  /  2 1012.2    0
CAMBRIDGE MD     0548   53 42  170/  3/  4 1012.3F
LEWISETTA VA     0548   56 44  230/  4/  5 1012.8F
RAPPAHANNOCK LGT 0542          140/ 12/ 13 1013.8F
YORK RVR RNG VA  0548   51     180/ 11/ 11 1012.6F
YORKTOWN VA      0548   57 48  190/  5/  8 1012.9F
JAMESTOWN VA     0600   54 51  110/  4/  6   N/A     0
DOMINION TERM VA 0548   56     170/  3/  3 1013.5F
KIPTOPEKE VA     0542      47  160/  9/  9   N/A
CHES BAY BRIDGE  0548   57 47  190/  7/  9 1013.5F
CAPE HENRY VA    0548   58     180/  7/  9   N/A
WILLOUBY STN VA  0548   59     190/  9/ 10 1014.3F
S CRANEY ISL VA  0548   56     180/  4/  5 1013.4S
CAPE HENRY BUOY  0542      48                N/A     3/ 8   2/11
OFFSHORE WE BUOY 0551      48                N/A     3/11   2/11
64NM E OF VA BCH 0550   58 54  170/  6/  6 1014.1R   4/11   3/11
DUCK PIER NC     0548   57 48  200/  5/  6 1013.5R
44100 DUCK FRF   0535      48                N/A     3/ 8   2/11
44056 DUCK FRF   0530      50                N/A     2/11   2/11
OREGON INLET NC  0542   53 55  120/  1/  2 1014.1F
HATTERAS NC      0548   61 61   90/  5/  6 1013.8F
DIAMOND SHLS NC  0550   68 74  160/ 14/ 16 1014.0F   3/10   3/10
CAPE LOOKOUT NC  0600   64     130/  7/  7 1013.1F
$$




USA.gov is the U.S. government's official web portal to all federal, state and local government web resources and services.